Regional Weather Roundup
Issued by NWS

Home | Current Version | Previous Version | Text Only | Print | Product List | Glossary Off
Versions: 1 2 3 4 5 6 7 8 9 10 11 12 13 14 15 16 17 18 19 20 21 22 23 24 25 26 27 28 29 30 31 32 33 34 35 36 37 38 39 40 41 42 43 44 45 46 47 48 49 50

000
ASUS43 KIND 302209
RWRIN

WEATHER ROUNDUP FOR INDIANA
NATIONAL WEATHER SERVICE INDIANAPOLIS IN
600 PM EDT THU JUL 30 2015

NOTE: "FAIR" INDICATES FEW OR NO CLOUDS BELOW 12,000 FEET WITH NO
SIGNIFICANT WEATHER AND/OR OBSTRUCTIONS TO VISIBILITY.

* - STATION DOES NOT REPORT WEATHER SUCH AS PRECIPITATION OR FOG.

+ - STATION NOT QUALITY CONTROLLED BY THE NATIONAL WEATHER SERVICE.
    USE DATA WITH CAUTION...ESPECIALLY DEWPOINT AND RELATIVE
    HUMIDITY OBSERVATIONS.

INZ001>003-010>013-019-020-302300-
NORTHWEST INDIANA

CITY           SKY/WX    TMP DP  RH WIND       PRES   REMARKS
GARY /AIRPORT/ MOSUNNY   88  52  29 W14G30    30.02F
KNOX *+        MOSUNNY   82  55  39 W3        30.02F
LA PORTE +     SUNNY     86  55  34 NW6       30.04F
MICHIGAN CITY+ SUNNY     82  52  34 NW6       30.03F
MONTICELLO +   MOSUNNY   84  58  40 NW12      30.04F
RENSSELAER +   SUNNY     84  54  34 W12       30.05F
VALPARAISO     SUNNY     86  55  34 N5        30.03F

$$

LMZ046-743>745-302300-
SOUTHERN LAKE MICHIGAN

STATION/POSITION TIME  TEMP    WIND        PRES    WAVE
                       AIR SEA DIR/SP/G            HT
                 (UTC) (F)     (DEG/KT/KT) (MB)    (FT)
BURNS HARBOR     2100   85      60/  1/  3 1017.3F
MICHIGAN CITY    2100   79     210/  4/  4   N/A
5NW MICH CITY    2200   78 76  200/  4/  4   N/A     1

$$

INZ004-005-014>016-021>024-302300-
NORTH CENTRAL INDIANA

CITY           SKY/WX    TMP DP  RH WIND       PRES   REMARKS
ELKHART        SUNNY     84  50  30 NW15      30.03F
GOSHEN         SUNNY     82  56  40 NW13G21   30.03F
LOGANSPORT +   MOSUNNY   82  46  28 W7        30.05F
PERU/GRISSOM   SUNNY     84  57  39 W8        30.04F
ROCHESTER +    SUNNY     86  52  30 NW8       30.05S
SOUTH BEND     SUNNY     85  54  34 NW14      30.03F
WARSAW +       SUNNY     82  55  39 NW13      30.04F

$$

INZ006>009-017-018-025>027-302300-
NORTHEAST INDIANA

CITY           SKY/WX    TMP DP  RH WIND       PRES   REMARKS
ANGOLA *+      SUNNY     82  59  44 NW13      30.02S
AUBURN +       SUNNY     82  50  32 W17G24    30.03S
FORT WAYNE     MOSUNNY   84  55  36 W16G22    30.03F
HUNTINGTON +   SUNNY     82  53  35 NW7G18    30.04S

$$

INZ028-029-035-036-043>045-051>053-302300-
WEST CENTRAL INDIANA

CITY           SKY/WX    TMP DP  RH WIND       PRES   REMARKS
CRAWFORDSVL +  SUNNY     81  53  37 NW8         N/A
GREENCASTLE +  SUNNY     82  52  34 NW7       30.08F
LAFAYETTE      SUNNY     83  59  44 W13       30.05F
TERRE HAUTE    SUNNY     86  58  38 NW9       30.07F

$$

INZ030>032-037>040-046>048-054>057-064-065-302300-
CENTRAL INDIANA

CITY           SKY/WX    TMP DP  RH WIND       PRES   REMARKS
COLUMBUS       MOSUNNY   84  48  28 NW14      30.07F
FISHERS *+     SUNNY     82  63  51 NW9       30.06F
FRANKFORT +    SUNNY     83  58  41 W9        30.08F
GREENWOOD *+   SUNNY     84  50  30 W7        30.07F
INDIANAPOLIS   MOSUNNY   84  54  35 NW15      30.06F
-EAGLE CREEK   SUNNY     83  56  39 W16G22    30.06F
KOKOMO *+      SUNNY     84  57  39 NW9       30.05S
MARION +       MOSUNNY   82  54  36 NW8       30.05F
MT COMFORT *+  SUNNY     82  46  28 NW12      30.07S
SHELBYVILLE    SUNNY     85  59  41 NW10      30.05F
ZIONSVILLE +   SUNNY     83  54  36 NW9G18    30.08S

$$

INZ033-034-041-042-049-050-058-059-302300-
EAST CENTRAL INDIANA

CITY           SKY/WX    TMP DP  RH WIND       PRES   REMARKS
MUNCIE         SUNNY     82  56  40 NW15      30.05F

$$

INZ060-061-067>069-081>083-085>088-302300-
SOUTHWEST INDIANA

CITY           SKY/WX    TMP DP  RH WIND       PRES   REMARKS
EVANSVILLE     SUNNY     87  60  40 NW8       30.08F
HUNTINGBURG *+ SUNNY     84  57  39 NW10G21   30.08F
WASHINGTON +   SUNNY     85  54  34 NW5       30.07F

$$

INZ062-063-066-070>080-084-089>092-302300-
SOUTH CENTRAL AND SOUTHEAST INDIANA

CITY           SKY/WX    TMP DP  RH WIND       PRES   REMARKS
BLOOMINGTON    SUNNY     84  57  39 VRB7      30.08F
MADISON *+     SUNNY     84  55  37 NW6       30.08F
NORTH VERNON + SUNNY     86  52  30 NW8       30.07F
SEYMOUR +      SUNNY     86  57  37 NW14      30.06F

$$



USA.gov is the U.S. government's official web portal to all federal, state and local government web resources and services.